FW6283 Weather Reports


time (UTC)temp
C
wind
direction
speed
KPH
gust
KPH
rain 1hr
cm
rain 24hr
cm
rain mn
cm
humidity
%
barometer
mb
20260506110045 18 284 16.1 38.6 0.00 0.00 0.00 69 1014.0
20260506104541 17 326 17.7 38.6 0.00 0.00 0.00 71 1014.0
20260506103041 17 326 17.7 37.0 0.00 0.00 0.00 72 1013.9
20260506101532 16 191 12.9 41.8 0.00 0.00 0.00 73 1014.0
20260506100031 16 234 8.0 27.4 0.00 0.00 0.00 74 1013.7
20260506094524 15 196 19.3 38.6 0.00 0.00 0.00 75 1013.6
20260506093019 15 245 14.5 35.4 0.00 0.00 0.00 75 1013.6
20260506091516 15 202 16.1 37.0 0.00 0.00 0.00 76 1013.5
20260506090017 14 268 24.1 45.1 0.00 0.00 0.00 77 1013.1
20260506084508 14 175 20.9 38.6 0.00 0.00 0.00 78 1013.0
20260506083005 14 219 22.5 37.0 0.00 0.00 0.00 78 1013.1
20260506081507 13 234 14.5 32.2 0.00 0.00 0.00 78 1012.9
20260506073002 13 214 14.5 33.8 0.00 0.00 0.00 79 1013.3
20260506071659 14 227 4.8 29.0 0.00 0.00 0.00 78 1013.3
20260506070104 13 234 8.0 27.4 0.00 0.00 0.00 78 1013.4
20260506061556 14 213 19.3 41.8 0.00 0.00 0.00 76 1013.3
20260506044552 13 189 12.9 32.2 0.00 0.00 0.00 77 1013.4
20260506043046 13 235 16.1 37.0 0.00 0.00 0.00 76 1013.3
20260506041542 14 246 12.9 45.1 0.00 0.00 0.00 74 1013.0
20260506040041 15 225 16.1 43.5 0.00 0.00 0.00 72 1012.7
20260506034545 15 218 24.1 41.8 0.00 0.00 0.00 71 1012.5
20260506033032 16 203 20.9 35.4 0.00 0.00 0.00 69 1012.4
20260506031529 16 326 20.9 46.7 0.00 0.00 0.00 67 1012.5
20260506030036 16 260 14.5 45.1 0.00 0.00 0.00 68 1012.2
20260506024547 16 228 20.9 38.6 0.00 0.00 0.00 69 1012.4
20260506023024 16 326 19.3 56.3 0.00 0.00 0.00 68 1012.6
20260506021524 15 326 16.1 37.0 0.00 0.00 0.00 69 1012.7
20260506020023 15 246 14.5 45.1 0.00 0.00 0.00 69 1012.7
20260506014521 15 245 14.5 35.4 0.00 0.00 0.00 68 1012.8
20260506013034 16 233 17.7 43.5 0.00 0.00 0.00 65 1012.6
20260506011520 16 218 20.9 48.3 0.00 0.00 0.00 64 1012.5
20260506010024 16 248 16.1 48.3 0.00 0.00 0.00 63 1012.5
20260506004517 16 209 17.7 32.2 0.00 0.00 0.00 63 1012.3
20260506003018 16 237 16.1 38.6 0.00 0.00 0.00 61 1012.2
20260506001517 16 326 19.3 43.5 0.00 0.00 0.00 58 1011.7
20260506000014 16 326 14.5 37.0 0.00 0.00 0.00 57 1011.5
20260505234512 16 190 8.0 30.6 0.00 0.00 0.00 56 1011.2
20260505233017 17 198 12.9 33.8 0.00 0.00 0.00 54 1010.8
20260505231509 17 217 12.9 25.7 0.00 0.00 0.00 52 1010.8
20260505230022 18 216 12.9 27.4 0.00 0.00 0.00 51 1010.5
20260505224506 19 180 8.0 29.0 0.00 0.00 0.00 49 1010.4
20260505223005 20 212 9.7 29.0 0.00 0.00 0.00 47 1010.5
20260505221505 20 233 11.3 30.6 0.00 0.00 0.00 47 1010.5
20260505220003 21 210 12.9 25.7 0.00 0.00 0.00 46 1010.3
20260505214505 21 213 9.7 22.5 0.00 0.00 0.00 46 1010.5
20260505213001 21 183 11.3 30.6 0.00 0.00 0.00 46 1010.1
20260505211600 22 158 9.7 20.9 0.00 0.00 0.00 45 1010.2
20260505210058 22 204 12.9 29.0 0.00 0.00 0.00 45 1010.2
20260505204601 22 256 14.5 33.8 0.00 0.00 0.00 44 1010.2
20260505203104 22 237 16.1 32.2 0.00 0.00 0.00 44 1010.0
20260505201552 22 205 11.3 30.6 0.00 0.00 0.00 46 1009.8
20260505200051 21 175 12.9 25.7 0.00 0.00 0.00 49 1009.7
20260505194602 22 166 11.3 20.9 0.00 0.00 0.00 46 1009.5
20260505193048 25 326 11.3 30.6 0.00 0.00 0.00 34 1009.5
20260505191546 24 232 17.7 37.0 0.00 0.00 0.00 34 1009.5
20260505190044 25 266 16.1 33.8 0.00 0.00 0.00 33 1009.4
20260505184542 25 260 8.0 40.2 0.00 0.00 0.00 35 1009.4
20260505183042 25 245 11.3 38.6 0.00 0.00 0.00 38 1009.5
20260505181539 25 278 17.7 35.4 0.00 0.00 0.00 38 1009.6
20260505180038 24 223 19.3 43.5 0.00 0.00 0.00 36 1009.5
20260505174534 24 233 17.7 45.1 0.00 0.00 0.00 39 1009.8
20260505173041 23 326 22.5 45.1 0.00 0.00 0.00 39 1009.8
20260505171529 23 224 12.9 32.2 0.00 0.00 0.00 42 1009.7
20260505170029 23 250 6.4 30.6 0.00 0.00 0.00 46 1009.6
20260505164543 21 214 11.3 20.9 0.00 0.05 0.00 52 1009.9
20260505163018 17 198 4.8 16.1 0.00 0.05 0.00 62 1009.8
20260505161518 17 156 14.5 27.4 0.00 0.05 0.00 61 1009.8
20260505153013 20 118 4.8 27.4 0.00 0.46 0.00 52 1010.3
20260505151508 19 247 11.3 24.1 0.00 0.46 0.00 53 1010.0
20260505140106 17 326 16.1 29.0 0.00 0.71 0.00 54 1010.6
20260505124538 14 255 9.7 22.5 0.00 0.97 0.00 63 1010.4
20260505123033 13 195 6.4 17.7 0.00 0.97 0.00 65 1010.2
20260505121536 13 189 6.4 24.1 0.00 0.97 0.00 66 1010.1
20260505120025 12 240 9.7 25.7 0.00 0.97 0.00 69 1009.9
20260505114532 12 211 12.9 29.0 0.00 0.99 0.00 72 1009.8
20260505113016 11 326 8.0 19.3 0.00 0.99 0.00 76 1009.7
20260505111512 10 217 12.9 29.0 0.00 0.99 0.00 78 1009.8